Regional Weather Roundup
Issued by NWS San Angelo, TX

Home | Current Version | Previous Version | Text Only | Print | Product List | Glossary On
Versions: 1 2 3 4 5 6 7 8 9 10 11 12 13 14 15 16 17 18 19 20 21 22 23 24 25 26 27 28 29 30 31 32 33 34 35 36 37 38 39 40 41 42 43 44 45 46 47 48 49 50
000
ASUS44 KSJT 011310
RWRSJT
WEST CENTRAL TEXAS REGIONAL WEATHER ROUNDUP
NATIONAL WEATHER SERVICE SAN ANGELO TX
700 AM CST SUN MAR 01 2015

NOTE: "FAIR" INDICATES FEW OR NO CLOUDS BELOW 12,000 FEET WITH NO
SIGNIFICANT WEATHER AND/OR OBSTRUCTIONS TO VISIBILITY.

TXZ049-054-064>066-071>073-076>078-098-099-113-114-127-128-139-140-
154-155-168>170-011400
...LOCATIONS ACROSS WEST CENTRAL TEXAS...

CITY           SKY/WX    TMP DP  RH WIND       PRES   REMARKS
SAN ANGELO     CLOUDY    32  31  96 NE6       30.25R WCI  26
ABILENE        CLOUDY    29  28  96 N6        30.28R FOG     WCI  23
DYESS AFB      CLOUDY    29  28  95 CALM      30.27R
JUNCTION       CLOUDY    34  33  96 CALM      30.23R FOG
SWEETWATER     CLOUDY    29  29 100 CALM      30.28R
BROWNWOOD      CLOUDY    32  32 100 MISG      30.29R FOG
COLEMAN        CLOUDY    32  32 100 N8        30.27R FOG     WCI  25
SONORA         CLOUDY    36  36 100 N6        30.25R WCI  31
OZONA          CLOUDY    34  32  93 N9        30.23R FOG     WCI  26
BRADY          NOT AVBL
$$

TEXAS PANHANDLE/OKLAHOMA PANHANDLE

CITY           SKY/WX    TMP DP  RH WIND       PRES   REMARKS
AMARILLO       FOG       24  23  96 SE6       30.17S VSB 1/2 WCI  17
BORGER         CLOUDY    26  23  88 SE7       30.20R FOG     WCI  18
CANADIAN       CLOUDY    26  24  91 CALM      30.24R
DALHART        CLOUDY    27  23  85 SW5       30.14R WCI  22
DUMAS          CLOUDY    25  23  93 SE5       30.16R FOG     WCI  19
GUYMON         NOT AVBL
HEREFORD       CLOUDY    30  30  99 W8        30.15R WCI  22
PAMPA          CLOUDY    24  22  94 SW6       30.21R WCI  16
PERRYTON         N/A     24  22  94 S5        30.20R WCI  18
$$

SOUTHERN PANHANDLE/SOUTH PLAINS/ROLLING PLAINS

CITY           SKY/WX    TMP DP  RH WIND       PRES   REMARKS
LUBBOCK        FOG       25  23  92 S3        30.19R VSB 1
SNYDER         CLOUDY   N/A N/A N/A NE6       30.25R HAZE
CHILDRESS      CLOUDY    25  23  92 CALM      30.30R
SEMINOLE       CLOUDY    29  29 100 CALM      30.19R
$$

PERMIAN BASIN

CITY           SKY/WX    TMP DP  RH WIND       PRES   REMARKS
MIDLAND        FOG       30  29  96 E7        30.19R VSB 1   WCI  23
ODESSA         FOG       31  29  92 E8        30.19R VSB 3/4 WCI  23
WINK           CLOUDY    35  32  88 E3        30.17R FOG
$$

FAR WEST/SOUTHWEST MOUNTAINS/TRANS PECOS

CITY           SKY/WX    TMP DP  RH WIND       PRES   REMARKS
ALPINE         SUNNY     27  27  97 CALM      30.18R
DRYDEN           N/A     40  39  97 CALM      30.17R
EL PASO        CLEAR     45  30  55 S8        30.07R
FORT STOCKTON  CLOUDY    33  33 100 W5        30.17R FOG     WCI  29
GUADALUPE PASS NOT AVBL
MARFA          PTCLDY    32  28  86 N3        30.14R
PECOS          CLOUDY    35  33  94 CALM      30.19R
$$

DALLAS/FORT WORTH METROPLEX

CITY           SKY/WX    TMP DP  RH WIND       PRES   REMARKS
DFW AIRPORT    FRZ DRZL  32  31  96 N8        30.31R FOG     WCI  25
FTW MEACHAM    CLOUDY    33  30  88 N10       30.31S WCI  25
DAL-EXECUTIVE  MIX PCPN  32  32 100 N7        30.30R VSB 3/4 WCI  26
GRAND PRAIRIE  NOT AVBL
ADDISON        CLOUDY    32  30  93 N7        30.32R FOG     WCI  26
MESQUITE       DRIZZLE   34  34 100 N6        30.32  FOG     WCI  29
LANCASTER      RAIN      33  32  95 N7        30.32S WCI  27
$$

NORTH CENTRAL TEXAS

CITY           SKY/WX    TMP DP  RH WIND       PRES   REMARKS
SHRMAN/DENISON CLOUDY    34  34 100 CALM      30.33S FOG
GAINESVILLE    MIX PCPN  31  31  99 N5        30.35R WCI  26
BRIDGEPORT     CLOUDY    31  31 100 CALM      30.34S FOG
DENTON         MIX PCPN  32  31  96 N7        30.32F FOG     WCI  26
WAXAHACHIE     DRIZZLE   32  32 100 N7        30.32R WCI  26
GRANBURY       CLOUDY    33  32  96 NW5       30.32S FOG     WCI  29
$$

WESTERN NORTH TEXAS

CITY           SKY/WX    TMP DP  RH WIND       PRES   REMARKS
WICHITA FALLS  CLOUDY    30  28  92 N6        30.33R FOG     WCI  24
VERNON         CLOUDY    29  26  86 N3        30.34R
BRECKENRIDGE   CLOUDY    32  32 100 MISG      30.31S FOG
COMANCHE       CLOUDY    31  31 100 N7        30.28S FOG     WCI  24
$$

CENTRAL AND SOUTH CENTRAL TEXAS

CITY           SKY/WX    TMP DP  RH WIND       PRES   REMARKS
AUSTIN/BERGSTM DRIZZLE   36  36 100 N12       30.25R FOG     WCI  28
WACO           CLOUDY    34  33  96 N8        30.29S FOG     WCI  27
HILLSBORO      CLOUDY    34  32  93 N7        30.29R FOG     WCI  28
TEMPLE         CLOUDY    34  30  86 N12       30.26R WCI  25
KILLEEN-GRAY   NOT AVBL
FORT HOOD      LGT SNOW  34  34 100 N9        30.25S VSB 1   WCI  26
GEORGETOWN     CLOUDY    36  34  93 N7        30.26S FOG     WCI  30
LAGO VISTA     CLOUDY    34  33  96 N7        30.23S FOG     WCI  28
SAN MARCOS     CLOUDY    36  34  93 N14       30.24R FOG     WCI  27
NEW BRAUNFELS  CLOUDY    38  38 100 N12       30.20R FOG     WCI  30
RANDOLPH AFB   CLOUDY    39  38  97 N12       30.20R WCI  32
SAN ANTONIO    DRIZZLE   41  38  89 N8        30.21R FOG     WCI  36
STINSON        CLOUDY    41  39  93 N7        30.19R WCI  36
PLEASANTON     NOT AVBL
LA GRANGE      CLOUDY    39  38  98 N7        30.22R FOG     WCI  34
GIDDINGS       DRIZZLE   36  36  99 N7        30.27S WCI  30
$$

EAST TEXAS

CITY           SKY/WX    TMP DP  RH WIND       PRES   REMARKS
PARIS          CLOUDY    34  30  86 CALM      30.33R
CLARKSVILLE    NOT AVBL
TYLER          CLOUDY    36  33  89 N7        30.28S FOG     WCI  30
LONGVIEW       CLOUDY    38  34  85 N6        30.29R FOG     WCI  33
PALESTINE      CLOUDY    37  37 100 N6        30.28S FOG     WCI  33
NACOGDOCHES    CLOUDY    43  37  81 CALM      30.26F
$$

TEXAS HILL COUNTRY AND EDWARDS PLATEAU

CITY           SKY/WX    TMP DP  RH WIND       PRES   REMARKS
LLANO          CLOUDY    34  34 100 CALM      30.30R FOG
HORSESHOE BAY  CLOUDY    35  35 100 N5        30.26R WCI  31
KERRVILLE      CLOUDY    36  35  96 NW3       30.22R FOG
FREDERICKSBRG  CLOUDY    34  33  98 CALM      30.22S FOG
ROCKSPRINGS    NOT AVBL
HONDO          CLOUDY    44  32  62 NE6       30.21R FOG
UVALDE         FOG       44  44  99 CALM      30.21R VSB 3/4
DEL RIO        CLOUDY    44  43  96 CALM      30.20R FOG
$$

SOUTHEAST TEXAS

CITY           SKY/WX    TMP DP  RH WIND       PRES   REMARKS
COLLEGE STN    CLOUDY    39  38  96 N9        30.24R FOG     WCI  33
CALDWELL       FOG       36  36 100 N7        30.27S VSB 3/4 WCI  30
CROCKETT       CLOUDY    45  45 100 NE7       30.28R
BRENHAM        CLOUDY    42  41  98 N5        30.24R FOG     WCI  39
HUNTSVILLE     LGT RAIN  43  42  97 N3        30.23S VSB 1
CONROE         FOG       48  46  93 N7        30.23R VSB 1
HOUSTON BUSH   LGT RAIN  53  53 100 N7        30.20R VSB 1/4
HOUSTON HOBBY  LGT RAIN  59  58  96 NE7       30.18R FOG
PERLAND        LGT RAIN  58  58 100 E14       30.19R FOG
WHARTON        CLOUDY    49  48  99 N8        30.19R FOG
$$

THE UPPER TEXAS COAST

CITY           SKY/WX    TMP DP  RH WIND       PRES   REMARKS
ORANGE         RAIN      58  57  99 E6        30.23R
PORT ARTHUR    LGT RAIN  58  56  93 E12       30.20R
GALVESTON      LGT RAIN N/A N/A N/A E13       30.16S
ANGLETON       HVY RAIN  60  60 100 E5        30.16R FOG
BAY CITY       RAIN      62  62 100 N5        30.15S
$$

TEXAS COASTAL BEND, RIO GRANDE PLAINS DEEP SOUTH TEXAS

CITY           SKY/WX    TMP DP  RH WIND       PRES   REMARKS
VICTORIA       CLOUDY    44  44 100 N10       30.18R FOG     WCI  39
BEEVILLE       CLOUDY    43  43 100 N7        30.17R FOG     WCI  39
ROCKPORT       CLOUDY    50  48  93 N12       30.16R FOG
PORT ARANSAS   CLOUDY    50  50 100 N12       30.14S FOG
PORT LAVACA    CLOUDY    49  49  99 N13       30.17R FOG
CORPUS CHRISTI DRZL/FOG  47  47 100 N10       30.15S VSB 1
KINGSVILLE NAS CLOUDY    46  46 100 NW9       30.16S FOG
COTULLA        FOG       43  42  97 N3        30.20R VSB 1
LAREDO         CLOUDY    43  42  96 N5        30.21R FOG
BROWNSVILLE    CLOUDY    49  48  97 NW6       30.16R FOG
PORT ISABEL    CLOUDY    49  49 100 NW6       30.17R FOG
HEBBRONVILLE   HVY RAIN N/A N/A N/A N7        30.17R
MCALLEN        CLOUDY    48  46  93 NW8       30.18R FOG
WESLACO        CLOUDY    47  46  95 N9        30.16S FOG
FALFURRIAS     CLOUDY    45  43  94 NW5       30.17R
EDINBURG       CLOUDY    47  46  93 NW8       30.18R FOG
$$


USA.gov is the U.S. government's official web portal to all federal, state and local government web resources and services.